User: anonymous   Login
Location: ScottNC Observatory
(36.0892°N, 80.4832°W)
Time: 23:47:30
(UTC-05:00)
Language:

NUDT-PHONESAT - Orbit

View from above orbital plane
View from above orbital plane
View from above satellite
View from above satellite

Ground track
Ground track

The orbit data is extracted from the following two-line orbital elements,

1 40900U 15049B   19318.85050973  .00002077  00000-0  90465-4 0  9995
2 40900  97.4368 326.7578 0013423  29.1277  48.3940 15.23269640230361
Epoch (UTC): 14 November 2019 20:24:44
Eccentricity: 0.0013423
inclination: 97.4368°
perigee height: 487 km
apogee height: 505 km
right ascension of ascending node: 326.7578°
argument of perigee: 29.1277°
revolutions per day: 15.23269640
mean anomaly at epoch: 48.3940°
orbit number at epoch: 23036

The dashed part of the orbit path shows where the satellite is in the earth's shadow,  

DLR